Location: Caltech
(34.1382°N, 118.1253°W)
Time: 02:23:55
(UTC-07:00)

Oscar 10/S400 - Visible Passes

Search period start: 23 October 2014 00:00
Search period end: 02 November 2014 00:00
Orbit: 3964 x 35483 km, 26.0° (Epoch: 19 October)

Date Brightness Start Highest point End Pass type
(mag) Time Alt. Az. Time Alt. Az. Time Alt. Az.
23 Oct ? 00:32:00 10° W 01:44:25 32° WSW 05:45:54 10° SW visible
24 Oct ? 09:54:23 10° SSW 00:53:53 39° SW 10:40:54 10° ESE visible
25 Oct ? 08:57:48 10° SSW 00:00:52 46° SW 09:53:33 10° ESE visible
25 Oct ? 22:10:02 10° W 23:06:10 52° SW 09:04:57 10° SE visible
26 Oct ? 21:24:41 10° W 22:11:37 57° SSW 08:14:32 10° SE visible
27 Oct ? 20:39:48 10° W 21:18:42 62° SSW 07:21:54 10° SSE visible
28 Oct ? 19:55:13 10° W 20:27:49 66° SSW 06:27:23 10° SSE visible
29 Oct ? 19:10:51 10° W 19:38:42 69° SSW 05:31:13 10° SSE visible
30 Oct ? 18:26:35 10° W 18:50:56 71° S 04:32:26 10° SSE visible
31 Oct ? 17:42:22 10° W 18:04:12 73° S 03:28:38 10° SSE visible
01 Nov ? 16:58:08 10° W 17:18:13 73° S 00:00:00 16° SE visible
